Weather Roundup
Issued by NWS Chicago, IL

Home | Current Version | Previous Version | Text Only | Print | Product List | Glossary Off
Versions: 1 2 3 4 5 6 7 8 9 10 11 12 13 14 15 16 17 18 19 20 21 22 23 24 25 26 27 28 29 30 31 32 33 34 35 36 37 38 39 40 41 42 43 44 45 46 47 48 49 50

000
NZUS59 KLOT 211403
HRRLOT

CHICAGO AREA WEATHER ROUNDUP
NATIONAL WEATHER SERVICE CHICAGO/ROMEOVILLE IL
800 AM CST WED FEB 21 2018

NOTE: "FAIR" INDICATES FEW OR NO CLOUDS BELOW 12,000 FEET WITH NO
SIGNIFICANT WEATHER AND/OR OBSTRUCTIONS TO VISIBILITY.

* THESE STATIONS ARE NOT UNDER NWS QUALITY CONTROL. THEY ALSO MAY NOT
  REPORT WEATHER SUCH AS PRECIPITATION OR FOG.

ILZ005-006-012>014-019>023-211500-
NORTHEAST ILLINOIS

CITY           SKY/WX    TMP DP  RH WIND       PRES   REMARKS
OHARE          CLOUDY    27  19  72 N10       30.46R WCI  17
MIDWAY         PTSUNNY   29  22  75 N14       30.46R WCI  18
AURORA           N/A     26  21  81 N17       30.47R WCI  13
LANSING*         N/A     31  26  83 NE10      30.45R WCI  22
JOLIET*          N/A     30  25  84 N8        30.48R WCI  22
WAUKEGAN         N/A     25  17  72 NW8       30.46R WCI  16
DUPAGE AIRPORT   N/A     26  19  74 N14       30.46R WCI  14
WHEELING         N/A     27  20  75 NW12      30.48R WCI  17
KANKAKEE*      PTSUNNY   31  29  95 N10       30.46R WCI  22
MORRIS*          N/A     28  24  83 N7        30.48R WCI  21
LEWIS AIRPORT*   N/A     28  25  87 N8        30.46R WCI  20
NORTHERLY ISL    N/A     29  21  72 N8          N/A  WCI  21
$$

WIZ051-052-058>065-066-070>072-211500-
SOUTHEAST WISCONSIN

CITY           SKY/WX    TMP DP  RH WIND       PRES   REMARKS
MILWAUKEE      PTSUNNY   24  14  65 NW14G22   30.47R WCI  12
KENOSHA*         N/A     25  16  68 NW13      30.47R WCI  14
RACINE*          N/A     24  15  68 NW12      30.48R WCI  13
BURLINGTON       N/A     23  15  71 NW12      30.48R WCI  11
WAUKESHA       SUNNY     19  12  73 NW12      30.48R WCI   7
WEST BEND        N/A     21  16  79 NW12      30.47R WCI   9
$$

INZ001>003-010>013-019-020-211500-
NORTHWEST INDIANA

CITY           SKY/WX    TMP DP  RH WIND       PRES   REMARKS
GARY*          CLOUDY    30  27  86 N12G24    30.47R WCI  21
MICHIGAN CITY* NOT AVBL
RENSSELAER*    NOT AVBL
VALPARAISO     CLOUDY    31  26  82 N12       30.43R WCI  22
$$

LMZ740>746-211500-
SOUTHERN LAKE MICHIGAN

STATION/POSITION TIME  SKY/WX   TEMP WIND        PRES    VSBY
                                AIR  DIR/SP/G
                 (UTC)          (F)  (DEG/KT/KT) (MB)    (MI)
HARRISON CRIB    1340            29  340/ 15/ 17   N/A
BURNHAM HARBOR   1400            29  350/ 10/ 12   N/A
CALUMET HARBOR   1330            29  350/ 11/ 14 1030.5R
BURNS HARBOR     1340            30  350/ 15/ 20 1031.2R
MICHIGAN CITY    1340            30  340/ 19/ 21   N/A
$$

ABBREVIATIONS USED IN REMARKS
   TC - TEMPERATURE IN CELSIUS
  WCI - WIND CHILL INDEX
   HX - HEAT INDEX
  VSB - VISIBILITY
$$




USA.gov is the U.S. government's official web portal to all federal, state and local government web resources and services.